Kenai, AK

11:38 PM AKDT on September 23, 2017 (GMT -0800)
Kenai Municipal

Weather History for PAEN - June, 2012

Change the Weather History Date:

Sunday, June 3, 2012

  Actual Average Record
Temperature  
Mean Temperature 46 °F -  
Max Temperature 50 °F 57 °F 76 °F (1957)
Min Temperature 43 °F 41 °F 31 °F (1956)
Degree Days  
Heating Degree Days 18    
Moisture  
Dew Point 42 °F    
Average Humidity 86    
Maximum Humidity 97    
Minimum Humidity 77    
Precipitation  
Precipitation 0.04 in - - ()
Sea Level Pressure  
Sea Level Pressure 30.02 in    
Wind  
Wind Speed 10 mph (SSW)    
Max Wind Speed 15 mph    
Max Gust Speed 21 mph    
Visibility 10 miles    
Events Rain    
Averages and records for this station are not official NWS values.
T = Trace of Precipitation, MM = Missing Value Source: NWS Daily Summary

Daily Weather History Graph

Daily Weather History Graph

Search for Another Location

Airport or City:

Trip Planner

Search our weather history database for the weather conditions in past years. The results will help you decide how hot, cold, wet, or windy it might be!

Date:

Astronomy

Jun. 03, 2012 Rise Set
Actual Time 4:44 AM AKDT 11:23 PM AKDT
Civil Twilight 3:08 AM AKDT 1:01 AM AKDT
Nautical Twilight Sun does not set Sun does not set
Astronomical Twilight Sun does not set Sun does not set
Moon 10:52 PM AKDT (6/3) 4:17 AM AKDT (6/3)
Length of Visible Light 21h 53m
Length of Day
18h 38m
Waxing Gibbous, 99% of the Moon is Illuminated
Jun 3
Waxing Gibbous
Jun 4
Full
Jun 11
Last Quarter
Jun 19
New
Jun 26
First Quarter

Hourly Weather History & Observations

Time (AKDT) Temp. Windchill Dew Point Humidity Pressure Visibility Wind Dir Wind Speed Gust Speed Precip Events Conditions
12:53 AM 50.0 °F - 45.0 °F 83% 29.91 in 10.0 mi South 8.1 mph - 0.01 in   Overcast
1:53 AM 48.9 °F - 45.0 °F 86% 29.91 in 10.0 mi South 11.5 mph - N/A   Overcast
2:53 AM 46.9 °F - 44.1 °F 90% 29.93 in 10.0 mi Calm Calm - N/A   Mostly Cloudy
3:53 AM 43.0 °F 38.2 °F 41.0 °F 93% 29.94 in 10.0 mi SSW 8.1 mph - N/A   Clear
4:53 AM 43.0 °F 38.2 °F 42.1 °F 97% 29.95 in 10.0 mi South 8.1 mph - N/A   Scattered Clouds
5:10 AM 44.6 °F 39.2 °F 42.8 °F 93% 29.94 in 10.0 mi SSW 10.4 mph - N/A   Mostly Cloudy
5:53 AM 44.1 °F 39.0 °F 42.1 °F 93% 29.95 in 10.0 mi SSW 9.2 mph - N/A   Mostly Cloudy
6:42 AM 44.6 °F 41.4 °F 42.8 °F 93% 29.95 in 10.0 mi South 5.8 mph - N/A   Overcast
6:53 AM 45.0 °F 39.3 °F 43.0 °F 93% 29.96 in 10.0 mi SSW 11.5 mph - N/A   Overcast
7:53 AM 46.9 °F - 43.0 °F 86% 29.98 in 10.0 mi South 10.4 mph - N/A   Mostly Cloudy
8:50 AM 46.4 °F 40.7 °F 42.8 °F 87% 29.99 in 10.0 mi SSW 12.7 mph - N/A   Mostly Cloudy
8:53 AM 48.0 °F - 43.0 °F 83% 30.00 in 10.0 mi SSW 10.4 mph - N/A   Mostly Cloudy
9:53 AM 48.0 °F - 42.1 °F 80% 30.01 in 10.0 mi SSW 11.5 mph - N/A   Overcast
10:06 AM 48.2 °F - 42.8 °F 82% 30.00 in 10.0 mi SW 11.5 mph - N/A   Mostly Cloudy
10:28 AM 48.2 °F - 42.8 °F 82% 30.01 in 10.0 mi SW 10.4 mph - N/A   Mostly Cloudy
10:53 AM 48.0 °F - 42.1 °F 80% 30.02 in 10.0 mi SSW 11.5 mph - N/A   Overcast
11:53 AM 48.9 °F - 42.1 °F 77% 30.03 in 10.0 mi SW 10.4 mph - N/A   Overcast
12:53 PM 48.0 °F - 42.1 °F 80% 30.05 in 10.0 mi SW 13.8 mph 19.6 mph N/A   Overcast
1:53 PM 48.9 °F - 42.1 °F 77% 30.06 in 10.0 mi WSW 15.0 mph 20.7 mph N/A   Overcast
2:53 PM 48.9 °F - 42.1 °F 77% 30.07 in 10.0 mi SW 12.7 mph - N/A   Overcast
3:53 PM 48.0 °F - 41.0 °F 77% 30.09 in 10.0 mi SW 12.7 mph - 0.00 in Rain Light Rain
4:17 PM 46.4 °F 40.1 °F 42.8 °F 87% 30.07 in 10.0 mi SSW 15.0 mph - 0.00 in Rain Light Rain
4:53 PM 45.0 °F 38.5 °F 42.1 °F 90% 30.08 in 10.0 mi SSW 13.8 mph - 0.02 in Rain Light Rain
5:53 PM 45.0 °F 38.9 °F 42.1 °F 90% 30.09 in 10.0 mi SSW 12.7 mph - 0.01 in Rain Light Rain
6:53 PM 46.0 °F 41.0 °F 42.1 °F 86% 30.08 in 10.0 mi SSW 10.4 mph - 0.00 in Rain Light Rain
7:53 PM 46.0 °F 40.6 °F 42.1 °F 86% 30.08 in 10.0 mi SSW 11.5 mph - 0.00 in   Overcast
8:53 PM 46.0 °F 42.5 °F 42.1 °F 86% 30.08 in 10.0 mi SSW 6.9 mph - N/A   Overcast
9:42 PM 46.4 °F 41.1 °F 42.8 °F 87% 30.08 in 10.0 mi SSW 11.5 mph - N/A   Overcast
9:53 PM 46.0 °F 40.2 °F 42.1 °F 86% 30.09 in 10.0 mi SSW 12.7 mph - N/A   Overcast
10:08 PM 44.6 °F 38.8 °F 42.8 °F 93% 30.08 in 10.0 mi SSW 11.5 mph - N/A   Mostly Cloudy
10:20 PM 44.6 °F 38.4 °F 41.0 °F 87% 30.08 in 10.0 mi SSW 12.7 mph - N/A   Overcast
10:53 PM 44.1 °F 39.0 °F 41.0 °F 89% 30.10 in 10.0 mi SSW 9.2 mph - N/A   Overcast
11:00 PM 44.6 °F 39.7 °F 41.0 °F 87% 30.09 in 10.0 mi SSW 9.2 mph - N/A   Overcast
11:53 PM 44.1 °F 39.0 °F 41.0 °F 89% 30.10 in 10.0 mi SSW 9.2 mph - N/A   Overcast